www.pogodaiklimat.ru

Погода и климат >> Архив погоды >> Украина >> Перечин


ПОГОДА в Перечине

  • Прогноз погоды в Перечине
  • Монитор погоды в Перечине

АРХИВ ПОГОДЫ в Перечине

Время (UTC), дата Ветер
(напр.,м/с)
 
Видим.   Явления Облачность Т
(С)
Тd
(С)
f
(%)
Тe
(С)
Тes
(С)
Комфортность P
(гПа)
Po
(гПа)
Тmin
(С)
Tmax
(С)
R
(мм)
R24
(мм)
S
(см)
00 12.06 штиль 0 20 км 6/0
[Ac trans]
+14.9 +13.6 92 +15 +15 1017.5 993.9
06 12.06 штиль 0 20 км 8/0
[Ac trans Cc]
+16.7 +15.0 90 +17 +23 1017.1 993.6 +13.6
09 12.06 Ю 1 20 км 3/3 1000 м
[Cu med, cong]
+26.2 +13.5 45 +28 +42 жарко 1015.1 992.4
12 12.06 З 3 20 км гроза без осадков 4/4 1000 м
[Cb calv]
+28.2 +13.4 40 +30 +38 жарко 1013.2 990.7
15 12.06 С 2 10 км гроза, ливневой дождь 10/10 960 м
[Cb cap]
+21.4 +13.2 60 +24 +24 комфорт 1016.4 993.3
18 12.06 штиль 0 20 км {гроза, ливн. осадки} 9/8 1000 м
[Cb calv Ac trans]
+18.7 +15.9 84 +20 +20 1016.0 992.7 +29.0 0.4
21 12.06 штиль 0 20 км ясно +14.8 +13.0 89 +14 +14 1017.0 993.4
00 13.06 штиль 0 20 км ясно +12.2 +11.4 95 +12 +12 1017.9 994.0
03 13.06 штиль 0 20 км ясно +11.3 +10.7 96 +11 +11 1018.4 994.5
06 13.06 штиль 0 20 км ясно +16.6 +12.4 76 +17 +25 1017.2 993.7 +11.3
09 13.06 Ю 1 20 км 3/3 1000 м
[Cb calv]
+26.0 +17.0 58 +30 +43 душно 1015.3 992.6
12 13.06 Ю 1 20 км 4/3 1000 м
[Cu med, cong Ci fib]
+28.9 +15.9 45 +32 +45 душно 1014.1 991.6
15 13.06 Ю 2 20 км гроза без осадков 8/6 1000 м
[Cb calv Ci ing]
+29.1 +15.1 43 +32 +34 душно 1013.4 991.0
18 13.06 С 1 20 км {гроза} ясно +23.4 +18.7 75 +30 +30 очень
душно
1013.9 991.0 +30.2
21 13.06 штиль 0 20 км ясно +18.5 +16.5 88 +19 +19 1017.1 993.8
00 14.06 штиль 0 20 км ясно +15.8 +15.1 96 +16 +16 1018.1 994.5
06 14.06 С 1 20 км ясно +19.2 +16.5 84 +22 +29 комфорт 1018.2 994.9 +14.2
12 14.06 З 1 20 км 6/5 1000 м
[Cb calv Ci ing]
+28.8 +15.9 46 +32 +41 душно 1016.2 993.7
15 14.06 В 2 20 км гроза без осадков {ливн. осадки} 9/8 1000 м
[Cb calv Ci ing]
+27.2 +20.4 66 +34 +35 очень
душно
1016.3 993.7
18 14.06 штиль 0 20 км гроза без осадков {ливн. осадки} 9/8 930 м
[Cb calv Ac trans Ci ing]
+18.5 +15.2 81 +19 +19 1019.0 995.6 +30.0 0.7
00 15.06 штиль 0 20 км {гроза} 8/0
[Ac trans Ci fib]
+15.2 +13.7 91 +15 +15 1019.6 996.0
03 15.06 штиль 0 20 км 6/0
[Ci fib]
+13.1 +12.4 96 +13 +13 1019.6 995.8
06 15.06 В 1 50 км ясно +18.3 +15.2 82 +20 +27 1018.0 994.6 +13.1
09 15.06 З 2 50 км 1/1 1000 м
[Cu hum]
+27.3 +14.5 45 +30 +44 душно 1015.5 992.9
12 15.06 З 1 50 км 3/3 1000 м
[Cu med, cong]
+29.8 +12.1 34 +31 +44 жарко 1013.1 990.7
18 15.06 С 1 20 км 3/1 1000 м
[Cu med, cong Ci sp]
+25.6 +17.7 62 +30 +30 душно 1012.5 989.8 +30.8
21 15.06 С 1 20 км 3/0
[Ci fib]
+18.5 +16.0 85 +20 +20 1014.4 991.1
00 16.06 С 1 20 км ясно +15.9 +14.5 91 +17 +17 1014.9 991.4
03 16.06 штиль 0 20 км 6/3 1000 м
[Cu med, cong Ac trans Ci fib]
+14.6 +13.9 96 +14 +14 1015.4 991.8
06 16.06 штиль 0 20 км 8/0
[Ci fib]
+18.1 +16.4 90 +18 +25 1014.8 991.5 +14.1
12 16.06 З 3 20 км 6/6 1000 м
[Cb calv]
+29.7 +14.2 39 +32 +37 душно 1011.5 989.2
18 16.06 С 1 20 км {гроза, ливн. осадки} 10/8 960 м
[Cb calv Ac und]
+19.8 +18.7 93 +24 +24 комфорт 1014.7 991.5 +30.5 13
21 16.06 С 8 20 км гроза без осадков 10/10 960 м
[Cb calv]
+19.0 +15.1 78 +20 +20 1016.4 993.1
00 17.06 С 3 20 км {гроза} 10/8 1000 м
[Cb calv Ac und]
+15.8 +14.0 89 +15 +15 1017.7 994.1
03 17.06 С 1 20 км 8/6 1000 м
[Sc Ac trans]
+16.2 +13.9 86 +17 +17 1017.6 994.1
06 17.06 С 4 20 км 9/8 960 м
[Sc Ac trans]
+17.7 +14.2 80 +17 +18 1017.8 994.4 +15.0
12 17.06 С 2 20 км 9/8 1000 м
[Sc Ac trans]
+21.5 +13.7 61 +24 +26 комфорт 1017.3 994.2
18 17.06 С 3 20 км {гроза, ливн. осадки} 9/5 1000 м
[Cb calv Ac trans Ci ing]
+19.0 +15.1 78 +20 +20 1017.2 993.9 +22.5 0.3
00 18.06 С 3 20 км 8/0
[Ac lent Ci fib]
+16.4 +13.5 83 +16 +16 1018.9 995.4
06 18.06 С 2 20 км 9/4 1000 м
[Cb calv Ac trans Ci fib]
+18.7 +14.2 75 +20 +22 1018.0 994.7 +15.4
12 18.06 С 2 20 км гроза без осадков 9/8 960 м
[Cb calv Ci ing]
+24.9 +17.4 63 +29 +32 душно 1015.6 992.8
18 18.06 С 1 20 км гроза без осадков {ливн. осадки} 9/8 930 м
[Cb calv Ci ing]
+19.8 +18.9 95 +24 +24 комфорт 1016.5 993.3 +25.8 7

 

Местоположение метеостанции Перечин (Закарпатская область, Украина): широта 48.73 долгота 22.47 высота над уровнем моря 198 м.

В архиве по умолчанию представлена погода в Перечине за последнюю неделю. Архивные данные за месяц целиком и за предыдущие месяцы, начиная с января 2011 года, Вы можете получить, выбрав интересующий диапазон дат из раскрывающегося списка и нажав кнопку "Ввод!".


*Определитесь, кто Вы:
робот инопланетянин человек

Внимание! Время в таблицах - всемирное. Для получения местного времени необходимо прибавить поправку, которая равна 2 ч.

Смотрите также архив погоды в соседних городах и на ближайших метеорологических станциях:

Погода в Ужгороде (Закарпатская область, Украина) (18 км)
Погода в Великом Березном (Закарпатская область, Украина) (19 км)
Погода в Каменице-над-Сирочью (Словакия) (41 км)
Погода в Захони (Венгрия) (43 км)
Погода в Плае (Черновицкая область, Украина) (52 км)
Погода в Мильхостове (Словакия) (55 км)
Погода в Турке (Львовская область, Украина) (60 км)
Погода в Берегове (Закарпатская область, Украина) (60 км)
Погода в Нижнем Студеном (Закарпатская область, Украина) (66 км)
Погода в Стропкове (Словакия) (81 км)

Пояснения к столбцам:

Ветер - указаны скорость ветра в м/с - средняя за 10 мин, порывы в срок и между сроками (в фигурных скобках) и направление, откуда дует ветер: С - северный, СВ - северо-восточный, В - восточный, ЮВ - юго-восточный, Ю - южный, ЮЗ - юго-западный, З - западный, СЗ - северо-западный.
Видимость - горизонтальная дальность видимости в метрах или километрах. При видимости от 1 до 10 км при отсутствии осадков обычно наблюдается дымка, при ухудшении видимости до 1 км и менее - туман. В сухую погоду видимость может ухудшаться дымом, пылью или мглою.
Явления - указаны атмосферные явления, наблюдавшиеся в срок или в последний час перед сроком; фигурными скобками обозначены явления, наблюдавшиеся между сроками (за 1-3 часа до срока); квадратными скобками обозначены град или гололедные отложения с указанием их диаметра в мм.
Облачность - указаны через наклонную черту общая и нижняя облачность в баллах и высота нижней границы облаков в метрах; квадратными скобками обозначены формы облаков: Ci - перистые, Cs - перисто-слоистые, Cc - перисто-кучевые, Ac - высококучевые, As - высокослоистые, Sc - слоисто-кучевые, Ns - слоисто-дождевые, Cu - кучевые, Cb - кучево-дождевые. Подробнее классификацию облаков см. в Атласе облаков (PDF).
T - Температура воздуха - температура, измеренная на высоте 2 м над землей.
Td - Температура точки росы - температура, при понижении до которой содержащийся в воздухе водяной пар достигнет насыщения.
f - Относительная влажность воздуха - влажноcть воздуха, измеренная на высоте 2 м над землей.
Te - Эффективная температура - температура, которую ощущает одетый по сезону человек в тени. Характеристика душности погоды. При расчете учитывается влияние влажности воздуха и скорости ветра на теплоощущения человека.
Tes - Эффективная температура на солнце - температура, которую ощущает человек, с поправкой на солнечный нагрев. Характеристика знойности погоды. Зависит от высоты солнца над горизонтом, облачности и скорости ветра. Ночью, в пасмурную погоду, а также при ветре 12 м/с и более поправка равна нулю.
P - Атмосферное давление - приведенное к уровню моря атмосферное давление.
Po - Атмосферное давление - измеренное на уровне метеостанции атмосферное давление.
Tmin - Минимальная температура - минимум температуры воздуха на высоте 2 м над землей.
Tmax - Максимальная температура - максимум температуры воздуха на высоте 2 м над землей.
R - Количество осадков - Количество выпавших осадков за период времени, мм. При наведении курсора мыши на число - период времени, за который выпало указанное количество осадков.
R24 - Количество осадков - Количество выпавших осадков за 24 часа, мм.
S - Снежный покров - Высота снежного покрова, см. При наведении курсора мыши на число - состояние снежного покрова и степень покрытия местности в баллах.